GLOBALSTAR M008 [-]

Last updated on July 6, 2021, 3:36 p.m. UTC

1 25309U 98023D   21187.08713524 -.00000104  00000-0 -63491-4 0  9994
2 25309  51.9987  58.7442 0003289  27.5409 126.5040 12.35994032 59829
UTC
Height (km)
Latitude
Longitude
Inclination
Orbital Period
UTC large
Height (km)
Speed (km/s)
/
Latitude / Longitude
Inclination (degrees)
Orbital Period (minutes)
Azimuth
Elevation
Range (km)
Doppler Factor
iOS Compass Heading
iOS Angle